Regional Weather Roundup
Issued by NWS San Angelo, TX

Home | Current Version | Previous Version | Text Only | Print | Product List | Glossary On
Versions: 1 2 3 4 5 6 7 8 9 10 11 12 13 14 15 16 17 18 19 20 21 22 23 24 25 26 27 28 29 30 31 32 33 34 35 36 37 38 39 40 41 42 43 44 45 46 47 48 49 50
000
ASUS44 KSJT 240911
RWRSJT
WEST CENTRAL TEXAS REGIONAL WEATHER ROUNDUP
NATIONAL WEATHER SERVICE SAN ANGELO TX
400 AM CDT SUN JUL 24 2016

NOTE: "FAIR" INDICATES FEW OR NO CLOUDS BELOW 12,000 FEET WITH NO
SIGNIFICANT WEATHER AND/OR OBSTRUCTIONS TO VISIBILITY.

TXZ049-054-064>066-071>073-076>078-098-099-113-114-127-128-139-140-
154-155-168>170-241000
...LOCATIONS ACROSS WEST CENTRAL TEXAS...

CITY           SKY/WX    TMP DP  RH WIND       PRES   REMARKS
SAN ANGELO     CLEAR     82  63  52 S12       29.94F
ABILENE        CLEAR     80  64  58 S13       29.94F
DYESS AFB      CLEAR     80  64  58 SE12      29.93F
JUNCTION       CLEAR     81  68  64 S7        29.97S
SWEETWATER     CLEAR     81  59  47 S9G17     29.99S
BROWNWOOD      PTCLDY    79  66  65 SE3       29.95S
COLEMAN        SUNNY     78  64  60 S6        29.96S
SONORA         CLEAR     82  68  61 S10       30.01S
OZONA          FAIR      79  63  57 S8        30.00S
BRADY          NOT AVBL
$$

TEXAS PANHANDLE/OKLAHOMA PANHANDLE

CITY           SKY/WX    TMP DP  RH WIND       PRES   REMARKS
AMARILLO       CLOUDY    77  57  50 S14       30.03S
BORGER         CLOUDY    80  58  46 CALM      30.00R
CANADIAN       CLOUDY    80  63  55 SW9G16    29.96R
DALHART        MOCLDY    75  54  47 SW5       30.07R
DUMAS          CLOUDY    76  54  45 CALM      30.06R
GUYMON         NOT AVBL
HEREFORD       SUNNY     73  57  57 S8        30.04F
PAMPA          SUNNY     78  60  53 S12       30.02R
PERRYTON       CLOUDY    81  61  51 NW7       30.02R
$$

SOUTHERN PANHANDLE/SOUTH PLAINS/ROLLING PLAINS

CITY           SKY/WX    TMP DP  RH WIND       PRES   REMARKS
LUBBOCK        CLEAR     77  59  53 SE8       30.01S
SNYDER           N/A     79  59  51 S7        29.98S
CHILDRESS      CLEAR     78  61  55 S8        29.93F
SEMINOLE       SUNNY     75  55  50 CALM      30.03S
$$

PERMIAN BASIN

CITY           SKY/WX    TMP DP  RH WIND       PRES   REMARKS
MIDLAND        CLEAR     83  56  39 S13       29.98S
ODESSA         CLEAR     83  55  38 S15       29.99F
WINK           CLEAR     82  56  40 SE10      29.95F
$$

FAR WEST/SOUTHWEST MOUNTAINS/TRANS PECOS

CITY           SKY/WX    TMP DP  RH WIND       PRES   REMARKS
ALPINE         SUNNY     77  55  45 S5        30.11S
DRYDEN           N/A     83  60  45 E10       29.92S
EL PASO        CLEAR     83  45  26 S6        29.95F
FORT STOCKTON  CLEAR     81  57  43 SE16G23   29.95F
GUADALUPE PASS CLEAR     72  53  51 NE23      30.13F
MARFA          CLEAR     65  52  62 NE3       30.10
PECOS          SUNNY     80  56  43 E9        29.93S
$$

DALLAS/FORT WORTH METROPLEX

CITY           SKY/WX    TMP DP  RH WIND       PRES   REMARKS
DFW AIRPORT    PTCLDY    83  72  69 S7        29.90S
FTW MEACHAM    CLEAR     84  69  60 SE10      29.90S
DAL-EXECUTIVE  CLEAR     81  72  74 SE5       29.91S
GRAND PRAIRIE  PTCLDY    83  70  64 S5        29.92S
ADDISON        PTCLDY    84  74  72 SE8       29.93S
MESQUITE       SUNNY     77  74  91 SE5       29.92S
LANCASTER      SUNNY     81  72  75 SE3       29.93R
$$

NORTH CENTRAL TEXAS

CITY           SKY/WX    TMP DP  RH WIND       PRES   REMARKS
SHRMAN/DENISON SUNNY     82  73  74 SE10      29.93S
GAINESVILLE    CLEAR     77  72  84 SE3       29.94R
BRIDGEPORT     MOSUNNY   80  69  68 S6        29.92S
DENTON         PTCLDY    80  72  76 SE3       29.90F
WAXAHACHIE     SUNNY     78  72  80 S3        29.93S
GRANBURY       SUNNY     83  68  59 S7        29.91F
$$

WESTERN NORTH TEXAS

CITY           SKY/WX    TMP DP  RH WIND       PRES   REMARKS
WICHITA FALLS  CLEAR     80  67  64 S9        29.89S
VERNON         SUNNY     81  60  49 S7        29.92S
BRECKENRIDGE   SUNNY     83  64  52 S10       29.92S
COMANCHE       CLEAR     78  68  72 SW6       29.95F
$$

CENTRAL AND SOUTH CENTRAL TEXAS

CITY           SKY/WX    TMP DP  RH WIND       PRES   REMARKS
AUSTIN/BERGSTM PTCLDY    79  76  90 S6        29.94S
WACO           CLEAR     82  71  69 S10       29.92S
HILLSBORO      SUNNY     80  71  74 S6        29.93R
TEMPLE         CLEAR     81  73  76 S13       29.94R
KILLEEN-GRAY   CLEAR     80  72  76 S8        29.93F
FORT HOOD      CLEAR     80  71  74 S10       29.91F
GEORGETOWN     CLEAR     81  72  74 S13       29.94S
LAGO VISTA     FAIR      79  73  81 S8        29.98S
SAN MARCOS     MOCLDY    79  75  89 S7        29.97S
NEW BRAUNFELS  PTCLDY    78  75  90 S6        29.93S
RANDOLPH AFB   PTCLDY    77  77 100 S6        29.94F
SAN ANTONIO    PTCLDY    79  73  82 S9        29.95F
STINSON        PTCLDY    79  74  84 SE3       29.92F
PLEASANTON     NOT AVBL
LA GRANGE        N/A     78  76  92 CALM      29.91S
GIDDINGS       MOSUNNY   78  74  87 SW6       29.98R
$$

EAST TEXAS

CITY           SKY/WX    TMP DP  RH WIND       PRES   REMARKS
PARIS          PTCLDY    73  64  73 E6        29.95S
CLARKSVILLE    NOT AVBL
TYLER          CLEAR     80  71  74 SE7       29.94S
LONGVIEW       PTCLDY    76  74  93 CALM      29.93S
PALESTINE      SUNNY     80  75  86 SE3       29.95S
NACOGDOCHES    CLOUDY   N/A N/A N/A CALM      29.94R
$$

TEXAS HILL COUNTRY AND EDWARDS PLATEAU

CITY           SKY/WX    TMP DP  RH WIND       PRES   REMARKS
LLANO          SUNNY     81  70  69 CALM      29.98S
HORSESHOE BAY  FAIR      80  71  74 CALM      29.96R
KERRVILLE      CLEAR     76  71  84 S8        29.98F
FREDERICKSBRG  CLEAR     76  67  74 S6        29.99S
ROCKSPRINGS    MOSUNNY   79  70  73 SE12      30.02S
HONDO          PTCLDY    79  73  82 SE7       29.96F
UVALDE         SUNNY     78  71  77 E5        29.94F
DEL RIO        CLEAR     84  71  65 E13       29.89S
$$

SOUTHEAST TEXAS

CITY           SKY/WX    TMP DP  RH WIND       PRES   REMARKS
COLLEGE STN    PTCLDY    80  75  84 S3        29.93S
CALDWELL       SUNNY     79  77  94 CALM      29.96S
CROCKETT       CLOUDY    77  73  88 CALM      29.97R
BRENHAM        CLEAR     81  76  86 S5        29.93S
HUNTSVILLE     PTCLDY    81  75  82 S5        29.94R
CONROE         PTCLDY    81  75  82 SW3       29.93S
HOUSTON BUSH   PTCLDY    82  76  81 CALM      29.93R
HOUSTON HOBBY  PTCLDY    80  76  87 S3        29.92S
PERLAND        CLEAR     81  76  84 CALM      29.93F
WHARTON        MOSUNNY   75  74  95 CALM      29.93S
$$

THE UPPER TEXAS COAST

CITY           SKY/WX    TMP DP  RH WIND       PRES   REMARKS
ORANGE         MOSUNNY   81  76  82 CALM      29.94S
PORT ARTHUR    CLEAR     79  77  94 SW3       29.92F
GALVESTON      PTCLDY    84  77  79 S12       29.93S
ANGLETON       CLEAR     81  77  88 S3        29.92F
BAY CITY       MOSUNNY   79  76  91 CALM      29.93R
$$

TEXAS COASTAL BEND, RIO GRANDE PLAINS DEEP SOUTH TEXAS

CITY           SKY/WX    TMP DP  RH WIND       PRES   REMARKS
VICTORIA       PTCLDY    78  75  90 S3        29.92F
BEEVILLE       FAIR      79  79  99 S6        29.92F
ROCKPORT       CLEAR     84  74  71 S9        29.90F
PORT ARANSAS   PTSUNNY   84  79  85 S14G21    29.90F
PORT LAVACA    SUNNY     79  77  94 CALM      29.92S
CORPUS CHRISTI PTCLDY    80  76  87 S7        29.90F
KINGSVILLE NAS CLEAR     78  78 100 S5        29.90F
COTULLA        CLEAR     82  72  71 SE9       29.91S
LAREDO         CLEAR     82  73  74 SE12      29.89F
BROWNSVILLE    CLEAR     80  76  87 SE7       29.90F
PORT ISABEL    CLEAR     82  77  84 S6        29.89F
HEBBRONVILLE   PTSUNNY   78  73  84 SE6       29.92F
MCALLEN        CLEAR     82  75  79 SE10      29.88F
WESLACO        CLEAR     75  12   9 SE7       29.88F
FALFURRIAS     SUNNY     78  74  85 CALM      29.90S
EDINBURG       SUNNY     80  74  83 CALM      29.89F
$$




USA.gov is the U.S. government's official web portal to all federal, state and local government web resources and services.